Kuchera_Ratio
9.2 3.8 2.2 4.2 6.8 3.4 9.2 8.2 13.1 3.8 0.6 0.0 0.0 0.0 0.0 0.0 0.0 0.0 0.0 0.0 0.0 0.0 0.0 0.0 0.0 0.0 0.0 0.0 0.0 0.0 0.0 0.0 0.0 0.0 0.0 0.0 0.0 0.0 0.0 0.0 0.0 0.0 0.0 0.0
12.3 3.8 3.2 7.0 1.4 0.0 0.0 0.0 0.0 0.0 0.0 0.0 0.0 0.0 0.0 0.0 0.0 0.0 0.0 0.0 0.0 0.0 0.0 0.0 0.0 0.0 0.0 0.0 0.0 0.0 0.0 0.0 0.0 0.0 0.0 0.0 0.0 0.0 0.0 0.0 0.0 0.0 0.0 0.0
15.2 5.4 6.8 13.5 4.0 0.0 0.0 0.0 0.0 3.6 0.0 0.0 0.0 0.0 0.0 0.0 0.0 0.0 0.0 0.0 0.0 0.0 0.0 0.0 0.0 0.0 0.0 0.0 0.0 0.0 0.0 0.0 0.0 0.0 0.0 0.0 0.0 0.0 0.0 0.0 0.0 0.0 0.0 0.0
14.5 11.6 18.2 1.4 0.0 0.0 0.0 0.0 1.4 0.0 0.0 0.0 0.0 0.0 0.0 0.0 0.0 0.0 0.0 0.0 0.0 0.0 0.0 0.0 0.0 0.0 0.0 0.0 0.0 0.0 0.0 0.0 0.0 0.0 0.0 0.0 0.0 0.0 0.0 0.0 0.0 0.0 0.0 0.0
14.5 13.5 7.0 0.2 0.0 1.6 0.8 3.6 0.0 0.0 0.0 0.0 0.0 0.0 0.0 0.0 0.0 0.0 0.0 0.0 0.0 0.0 0.0 0.0 0.0 0.0 0.0 0.0 0.0 0.0 0.0 0.0 0.0 0.0 0.0 0.0 0.0 0.0 0.0 0.0 0.0 0.0 0.0 0.0
11.8 15.8 16.7 12.0 0.0 0.0 0.0 5.6 0.0 0.0 0.0 0.0 0.0 6.6 1.6 0.0 0.0 0.0 0.0 0.0 0.0 0.0 0.0 0.0 0.0 0.0 0.0 0.0 0.0 0.0 0.0 0.0 0.0 0.0 0.0 0.0 0.0 0.0 0.0 0.0 0.0 0.0 0.0 0.0
12.1 13.6 5.6 0.0 0.0 0.0 8.8 11.0 0.0 0.0 0.0 0.0 2.2 1.2 0.0 0.0 0.0 0.0 0.0 0.0 0.0 0.0 0.0 0.0 0.0 0.0 0.0 0.0 0.0 0.0 0.0 0.0 0.0 0.0 0.0 0.0 0.0 0.0 0.0 0.0 0.0 0.0 0.0 0.0
11.2 14.0 14.7 0.0 0.0 2.0 0.0 0.0 0.0 0.0 0.0 0.0 0.0 0.0 0.0 0.0 0.0 0.0 0.0 0.0 0.0 0.0 0.0 0.0 0.0 0.0 0.0 0.0 0.0 0.0 0.0 0.0 0.0 0.0 0.0 0.0 0.0 0.0 0.0 0.0 0.0 0.0 0.0 0.0
6.4 4.6 0.0 0.0 0.0 0.0 0.0 0.0 0.0 0.0 0.0 0.0 0.0 0.0 0.0 0.0 0.0 0.0 0.0 0.0 0.0 0.0 0.0 0.0 0.0 0.0 0.0 0.0 0.0 0.0 0.0 0.0 0.0 0.0 0.0 0.0 0.0 0.0 0.0 0.0 0.0 0.0 0.0 0.0
3.0 0.0 0.0 0.0 0.0 0.0 0.0 0.0 0.0 0.0 0.0 0.0 0.0 0.0 0.0 0.0 0.0 0.0 0.0 0.0 0.0 0.0 0.0 0.0 0.0 0.0 0.0 0.0 0.0 0.0 0.0 0.0 0.0 0.0 0.0 0.0 0.0 0.0 0.0 0.0 0.0 0.0 0.0 0.0
0.0 0.0 0.0 0.0 0.0 0.0 0.0 0.0 0.0 0.0 0.0 0.0 0.0 0.0 0.0 0.0 0.0 0.0 0.0 0.0 0.0 0.0 0.0 0.0 0.0 0.0 0.0 0.0 0.0 0.0 0.0 0.0 0.0 0.0 0.0 0.0 0.0 0.0 0.0 0.0 0.0 0.0 0.0 0.0
2.8 0.0 0.0 0.0 0.0 0.0 0.0 0.0 0.0 0.0 0.0 0.0 0.0 0.0 0.0 0.0 0.0 0.0 0.0 0.0 0.0 0.0 0.0 0.0 0.0 0.0 0.0 0.0 0.0 0.0 0.0 0.0 0.0 0.0 0.0 0.0 0.0 0.0 0.0 0.0 0.0 0.0 0.0 0.0
0.0 0.0 0.0 0.0 0.0 0.0 0.0 0.0 0.0 0.0 0.0 0.0 0.0 0.0 0.0 0.0 0.0 0.0 0.0 0.0 0.0 0.0 0.0 0.0 0.0 0.0 0.0 0.0 0.0 0.0 0.0 0.0 0.0 0.0 0.0 0.0 0.0 0.0 0.8 0.0 0.0 0.0 0.0 0.0
0.0 0.0 0.0 0.0 0.0 0.0 0.0 0.0 0.0 0.0 0.0 0.0 0.0 0.0 0.0 0.0 0.0 0.0 0.0 0.0 0.0 0.0 0.0 0.0 0.0 0.0 0.0 0.0 0.0 0.0 0.0 0.0 0.0 0.0 0.0 0.0 0.0 0.0 0.0 0.0 0.2 0.0 0.0 0.0
0.0 0.0 0.0 0.0 0.0 0.0 0.0 0.0 0.0 0.0 0.0 0.0 0.0 0.0 0.0 0.0 0.0 0.0 0.0 0.0 0.0 0.0 0.2 0.0 0.4 1.0 0.0 0.0 0.0 0.0 0.0 0.0 0.0 0.0 0.0 0.0 0.0 0.0 0.0 0.0 0.0 0.0 0.0 0.0
0.0 0.0 0.0 0.0 0.0 0.0 0.0 0.0 0.0 0.0 0.0 0.0 0.0 0.0 0.0 0.0 0.0 0.0 0.0 0.0 0.0 0.0 0.0 3.4 2.6 0.0 0.0 0.0 0.0 0.0 0.0 0.0 0.7 0.0 0.0 0.0 0.0 0.0 0.0 0.0 0.0 0.0 0.0 0.0
0.0 0.0 0.0 0.0 0.0 0.0 0.0 0.0 0.0 0.0 0.0 0.8 0.4 0.6 0.8 1.2 0.8 0.0 0.0 0.0 1.6 3.2 2.6 0.8 0.4 0.0 0.0 0.0 0.0 0.0 0.0 0.0 2.4 0.0 0.0 0.0 0.0 0.0 0.0 0.0 0.0 0.0 0.0 0.0
0.0 0.0 0.0 0.0 0.0 0.0 0.0 0.0 0.0 0.0 0.0 0.4 1.4 3.6 6.2 7.6 7.0 7.4 6.2 4.6 5.8 6.0 0.2 0.0 0.0 0.0 0.0 0.0 0.0 1.8 1.8 2.4 1.6 2.2 1.4 2.2 1.2 0.0 0.0 0.0 0.0 0.0 0.0 0.0
0.0 0.0 0.0 0.0 0.0 0.0 0.0 0.0 0.0 0.0 1.8 0.2 4.2 6.8 5.8 6.8 4.4 4.8 5.0 7.4 8.0 4.4 0.0 0.0 2.1 0.6 0.0 0.0 3.2 1.2 2.0 3.0 3.2 2.0 2.0 3.6 3.0 0.0 0.0 0.0 1.0 0.0 0.0 0.0
0.0 0.0 0.0 0.0 0.0 0.0 0.0 0.0 0.0 0.0 0.0 0.0 5.4 6.8 7.2 6.8 6.4 7.0 6.7 8.2 5.0 2.4 0.0 0.0 0.0 0.0 0.0 0.2 4.0 1.4 2.2 3.4 4.2 4.0 3.6 3.2 3.2 3.6 1.2 2.3 0.0 1.2 1.2 0.0
0.0 0.0 0.0 0.0 0.0 0.0 2.6 3.2 5.0 4.6 4.0 5.0 7.8 7.8 7.6 6.8 6.5 7.0 8.0 7.0 2.2 0.0 0.6 3.0 1.0 1.2 0.2 2.2 2.4 3.2 3.2 4.6 5.2 5.4 6.0 6.2 6.4 5.2 4.4 3.0 2.6 2.2 4.1 2.4
0.0 6.8 7.6 6.6 5.6 6.6 5.6 5.0 3.0 7.0 7.2 7.6 7.2 7.2 7.6 7.2 6.2 5.7 5.8 5.8 0.8 3.4 1.2 1.4 1.6 2.6 3.2 5.8 3.4 4.2 4.2 4.6 5.2 5.6 6.2 6.4 6.8 6.9 6.6 6.0 5.4 4.8 4.6 4.9
0.2 5.4 7.4 8.0 8.0 7.8 7.0 6.7 6.6 7.0 7.8 7.6 8.0 8.0 7.2 4.6 3.6 6.2 7.6 2.0 0.0 1.0 3.2 4.0 4.6 6.2 6.4 5.8 5.2 5.6 6.4 6.8 6.8 6.8 6.8 6.8 6.6 6.8 6.6 6.4 5.4 4.6 5.2 4.8
2.2 6.2 7.2 7.2 8.4 7.8 8.8 6.8 6.7 7.0 7.4 7.4 7.2 6.6 6.4 6.4 6.0 0.4 0.0 2.6 4.6 5.6 6.4 6.0 6.6 6.6 6.6 6.2 6.6 7.0 6.8 6.6 6.6 6.6 5.8 6.4 6.8 6.6 6.2 6.4 6.0 4.8 4.4 5.0
6.6 7.8 8.2 8.4 6.4 4.0 5.0 5.8 6.8 6.6 5.9 6.2 6.6 6.2 5.8 3.4 6.8 4.6 4.0 4.6 5.2 5.4 6.4 6.0 6.6 7.0 7.0 6.8 6.8 6.8 6.6 6.6 6.6 6.6 6.0 6.4 6.2 6.6 6.2 5.4 5.2 5.2 5.0 4.6
4.6 2.8 1.0 3.8 4.0 3.8 4.0 4.8 6.8 5.6 6.2 8.4 7.4 6.6 6.2 5.6 5.6 6.2 4.8 5.0 5.2 6.0 6.4 6.6 6.8 6.8 6.8 6.6 6.6 6.4 6.2 6.0 6.0 5.8 6.0 5.8 5.6 5.6 6.0 5.4 5.4 5.0 5.4 5.0
4.4 6.4 4.6 4.2 2.4 2.6 2.6 4.6 8.8 9.4 8.2 9.6 11.0 8.2 7.2 7.6 7.8 7.6 7.2 7.2 7.2 7.4 7.2 7.0 6.8 6.6 6.2 6.6 6.4 5.8 5.6 5.4 5.6 5.4 6.4 6.8 6.6 6.8 6.8 6.6 6.6 6.0 5.2 6.0